Temperature
17 17 17 17 16 16 16 16 16 16 16 16 16 16 16 16 16 16 16 16 16 16 16 16 15 16 16 16 15 15 15 15 15 15 15 15 15 15 15 15 15 15 15
18 17 17 17 16 16 16 16 16 16 16 16 16 16 16 16 16 16 16 16 16 16 16 16 16 16 15 15 15 15 15 15 15 15 15 15 15 15 15 15 15 15 15
17 17 17 16 16 16 16 16 16 16 16 16 16 16 16 16 16 16 15 15 16 16 16 16 15 15 15 15 15 15 15 15 14 14 15 15 15 15 15 15 15 15 15
17 17 16 16 16 16 16 16 16 16 16 16 16 16 16 15 15 15 15 15 15 15 15 15 15 15 15 15 15 15 15 14 14 14 14 14 15 15 15 15 15 15 14
16 16 16 16 16 16 16 16 16 16 16 16 15 15 15 15 15 15 15 15 15 15 15 15 15 15 15 15 15 15 14 14 14 14 14 14 14 14 14 14 14 14 14
15 15 16 16 15 15 16 16 16 16 16 15 15 15 15 15 15 15 15 15 15 15 15 15 15 15 15 15 15 14 14 14 14 14 14 14 14 14 14 14 14 14 14
15 15 15 15 15 15 15 15 15 15 15 15 15 15 15 15 15 15 15 15 15 15 15 15 15 15 15 15 15 14 14 14 14 14 14 14 14 14 14 14 14 14 14
15 15 15 15 15 15 15 15 15 15 15 15 15 15 15 15 15 15 15 15 15 15 15 15 15 15 15 15 14 14 14 13 14 14 14 14 14 14 14 14 14 14 14
14 14 14 14 15 15 15 15 15 15 15 15 15 15 14 15 15 15 14 14 15 15 15 15 15 15 15 15 14 14 14 13 13 13 14 14 14 14 14 14 14 14 14
14 14 14 14 14 14 14 14 14 14 14 14 14 14 14 14 14 14 14 14 15 15 15 15 15 15 15 14 14 14 13 13 13 13 14 14 14 14 14 14 14 14 14
14 14 14 14 14 14 14 14 14 14 14 14 14 14 14 14 14 14 14 14 14 14 14 14 14 14 14 14 14 13 13 13 13 13 13 13 14 14 14 14 14 14 14
13 13 13 14 14 13 13 14 14 13 13 13 13 13 13 13 13 14 14 14 14 14 14 14 14 14 14 13 13 13 13 13 13 13 13 13 13 13 13 13 13 13 13
13 13 13 13 13 13 13 13 13 13 13 13 13 13 13 13 13 13 13 13 13 13 13 13 13 13 13 13 13 13 13 13 13 13 13 13 13 13 13 13 13 13 13
12 12 12 12 13 13 13 13 13 13 13 13 13 13 13 13 13 13 13 13 13 13 13 13 13 13 13 13 13 13 13 13 13 13 13 13 13 13 13 13 13 13 13
12 12 12 12 12 12 12 13 13 13 13 13 12 12 12 13 13 13 13 13 13 13 13 13 13 12 12 13 12 13 13 13 13 13 13 13 13 13 13 13 13 13 13
11 11 11 11 12 12 12 12 12 12 12 12 12 12 12 12 13 12 12 12 12 12 12 12 12 12 12 12 12 12 12 12 12 13 13 13 13 13 13 13 13 12 12
11 11 11 11 11 11 11 12 12 12 12 12 12 12 12 12 12 12 12 12 12 12 12 12 12 12 12 12 12 12 12 12 12 12 12 12 12 12 12 12 12 12 12
10 10 11 11 11 11 11 11 11 12 12 12 12 12 12 12 12 12 12 12 12 12 12 12 12 12 12 12 12 12 12 12 12 12 12 12 12 12 12 12 12 12 12
10 10 10 10 10 11 11 11 11 11 11 11 12 12 12 12 11 12 12 12 12 12 12 12 11 12 12 11 11 11 12 12 12 12 12 12 12 12 12 12 12 12 12
9 10 10 10 10 10 10 10 11 11 11 11 11 11 11 11 11 11 11 11 12 12 12 11 11 11 11 11 11 11 11 11 11 11 11 11 11 11 11 11 11 11 11
9 9 9 10 10 10 10 10 10 10 10 10 11 11 11 11 11 11 11 11 11 11 11 11 11 11 11 11 11 11 11 11 11 11 11 11 11 11 11 11 11 11 11
8 8 9 9 9 9 10 10 10 10 10 10 10 10 11 11 11 11 11 11 11 11 11 11 11 11 11 11 11 10 10 10 10 10 10 11 10 10 10 10 10 10 10
7 8 8 8 9 9 9 9 9 9 9 9 9 10 10 10 11 10 11 11 11 11 11 11 11 11 11 10 10 10 10 10 10 10 10 10 10 10 10 10 10 10 10
7 7 7 8 8 8 8 9 9 9 9 9 9 9 9 10 10 10 10 10 10 10 10 10 11 10 11 10 10 10 10 10 10 9 9 10 10 10 10 10 10 10 10
6 6 7 7 7 8 8 8 8 8 9 9 9 9 9 9 9 9 10 10 10 10 10 10 10 10 10 10 10 10 10 10 10 10 9 9 9 9 9 9 9 9 9
5 5 6 7 7 7 7 8 8 8 8 8 8 8 8 8 9 9 9 9 10 10 10 10 10 10 10 10 10 10 10 10 10 10 9 9 9 9 9 9 9 9 9
Wind_Speed
10 13 15 15 15 15 14 14 14 14 14 14 14 14 14 14 14 14 14 15 15 15 16 16 17 18 18 19 19 19 19 19 19 20 20 19 19 19 19 18 19 18 21
14 17 16 16 15 15 15 14 14 14 14 14 13 13 14 14 14 14 14 14 14 15 16 16 17 17 18 18 18 17 17 16 17 18 19 19 19 19 19 20 19 18 20
15 17 17 16 16 15 15 14 14 13 13 13 13 13 13 13 13 13 13 13 14 15 15 16 16 17 17 17 16 15 14 13 13 14 16 16 18 19 19 20 19 19 19
14 16 16 17 16 16 15 15 14 13 13 13 13 13 13 13 13 14 13 14 14 15 15 16 16 16 16 15 14 12 11 10 10 12 13 15 16 18 19 19 19 19 19
13 15 17 17 16 16 15 15 14 13 13 13 13 13 13 13 13 14 14 14 15 15 15 15 15 15 15 14 12 10 9 9 12 14 16 17 16 18 18 18 18 18 18
12 14 17 17 16 16 15 15 14 13 13 12 12 12 13 13 13 14 14 14 15 15 15 15 14 14 14 12 10 8 8 9 11 14 16 16 15 17 17 17 18 18 18
11 13 16 16 17 16 15 15 14 13 12 12 12 12 12 13 13 14 14 14 15 14 14 14 13 13 12 11 9 8 8 10 13 15 16 15 15 17 17 16 16 17 17
11 12 15 15 16 15 15 15 14 13 13 12 12 12 12 13 13 13 14 14 14 14 13 13 13 12 11 9 8 7 8 10 12 15 16 15 15 16 16 15 16 16 16
10 10 11 13 14 15 15 14 14 14 13 12 12 12 12 12 13 13 14 14 14 13 13 13 12 12 11 9 7 7 8 11 11 12 14 13 15 14 15 15 14 15 15
10 9 8 9 11 12 13 14 14 14 13 13 12 13 13 13 13 13 13 13 13 13 12 12 12 11 10 8 6 5 7 9 10 13 12 12 14 14 14 14 14 14 14
8 7 7 7 8 10 11 12 13 13 13 13 12 14 13 11 12 12 13 13 13 13 12 12 11 11 9 7 5 4 5 7 11 12 12 12 12 12 13 13 13 13 13
7 6 6 6 6 8 9 10 10 10 11 11 11 12 10 10 11 12 14 14 13 13 12 11 11 10 8 5 5 4 4 8 10 11 11 12 12 11 12 12 12 12 12
6 6 5 5 6 6 6 7 7 8 8 9 10 10 9 10 11 11 11 11 12 11 9 9 9 7 6 6 5 4 6 8 9 11 11 11 11 10 10 10 10 10 11
5 5 5 5 4 5 5 5 6 6 6 6 8 8 8 7 7 8 8 9 9 8 8 8 6 6 6 7 6 7 8 8 10 11 10 10 10 10 9 9 9 10 10
5 5 5 5 4 3 3 4 5 4 5 7 7 7 7 6 5 6 7 8 8 8 7 5 5 5 5 6 7 7 8 8 10 10 10 10 9 9 9 10 10 10 10
5 5 5 5 4 3 3 3 3 4 6 7 7 7 7 7 6 5 5 5 6 7 6 6 6 5 5 6 6 6 7 8 9 10 10 9 9 9 9 9 9 9 9
5 5 5 5 4 4 3 3 4 5 6 5 6 8 7 7 7 6 5 4 5 7 7 6 6 6 5 5 4 6 7 7 8 9 9 8 8 8 9 9 9 9 8
5 6 6 5 5 4 3 3 3 5 6 5 7 8 8 7 8 7 5 4 6 7 6 4 4 4 4 4 4 4 6 7 7 8 9 8 8 8 8 8 8 8 8
4 5 5 5 5 4 3 3 3 4 4 5 6 6 7 8 8 7 5 5 7 6 5 4 4 4 4 4 4 4 4 5 5 7 7 8 9 9 8 8 8 7 7
3 4 5 5 5 4 3 3 3 3 3 4 5 5 7 7 8 8 5 6 7 4 3 3 5 5 5 5 5 5 4 4 5 5 5 7 8 8 8 7 7 6 6
2 4 4 4 5 4 4 4 4 4 3 3 3 6 6 7 7 7 5 5 5 4 4 5 5 7 4 4 4 3 3 3 3 3 4 5 6 7 7 7 6 6 5
1 2 4 4 4 5 4 4 3 4 3 3 3 4 6 6 7 7 5 4 4 4 4 4 5 4 3 3 3 3 2 1 2 2 3 3 4 5 5 5 6 6 6
1 1 2 4 4 4 5 4 4 3 3 3 2 3 3 6 7 7 6 5 5 4 4 4 4 5 5 2 2 3 3 3 1 1 1 2 2 2 3 4 6 6 6
2 1 0 3 4 4 5 6 7 5 4 3 3 2 3 5 6 7 6 6 5 4 5 4 4 3 5 4 1 1 2 3 3 2 0 1 1 2 2 3 5 5 5
3 2 1 1 2 4 5 6 7 5 3 3 4 4 3 3 5 6 7 6 4 4 4 4 4 3 3 4 3 2 1 2 2 3 2 1 0 0 1 3 4 4 5
5 3 2 0 1 3 4 5 6 6 6 6 5 5 4 3 3 4 6 5 5 4 4 4 4 4 3 3 3 3 3 2 2 2 2 2 2 1 1 2 3 3 4
Wind_Direction
128 136 143 140 136 132 128 127 124 123 120 118 116 114 113 110 108 105 102 101 100 98 98 96 94 91 87 84 83 82 81 83 83 80 77 74 74 73 72 72 73 71 74
132 139 142 139 137 134 132 129 125 123 121 120 120 118 115 114 112 111 107 105 103 102 100 100 96 93 90 87 86 85 84 86 88 87 81 75 73 74 73 72 76 75 74
130 138 142 138 137 134 131 128 125 124 122 121 122 122 119 116 114 112 110 108 105 103 102 101 98 95 91 88 88 87 85 86 90 90 85 80 75 75 75 75 76 76 75
129 137 142 138 137 136 133 130 127 126 124 124 123 122 121 118 114 110 108 107 105 104 103 101 100 98 94 90 88 86 82 77 78 83 82 81 78 78 77 76 77 76 75
129 137 138 138 137 137 135 133 130 128 128 127 125 122 120 117 115 113 109 105 103 103 103 103 101 100 96 92 88 81 67 59 68 79 81 79 79 80 78 77 77 76 76
129 132 138 139 138 137 135 135 133 131 130 130 127 124 122 119 117 115 111 107 106 104 104 104 103 101 98 93 87 73 53 51 72 81 82 82 83 83 81 78 77 77 77
129 129 140 139 140 138 138 136 134 133 133 130 128 126 125 122 119 117 114 111 109 108 107 105 104 102 99 94 85 62 46 62 81 82 81 82 86 85 82 79 77 77 78
126 128 139 137 139 141 141 140 137 135 134 132 130 128 126 124 122 119 117 115 112 111 110 109 106 104 101 96 84 60 52 66 82 87 85 84 88 86 83 80 80 79 79
115 120 134 137 135 136 138 141 139 138 135 133 131 128 127 128 127 122 119 118 115 113 113 113 110 106 102 97 86 68 60 67 75 85 88 86 89 88 85 82 81 81 79
116 120 126 134 135 133 133 136 136 136 134 132 129 128 128 129 129 126 122 120 119 118 117 115 113 109 106 100 90 73 70 71 76 83 87 91 92 89 87 84 82 82 81
115 123 128 130 132 134 137 136 132 132 134 134 131 134 132 133 133 131 127 125 123 123 124 123 120 118 114 106 93 83 79 85 83 87 88 95 95 92 89 86 84 83 82
128 130 131 130 128 133 140 140 142 140 142 141 140 145 149 140 133 127 130 130 129 129 131 134 135 133 127 120 106 93 91 96 94 94 95 100 97 94 92 91 88 86 85
142 135 131 123 128 128 130 142 144 143 150 147 151 154 143 129 127 126 130 130 132 137 139 141 147 150 139 126 124 115 92 91 95 96 101 102 101 98 97 95 94 91 89
149 138 127 117 118 124 131 140 142 144 149 144 149 147 137 132 133 141 143 149 149 151 147 156 161 145 131 126 123 109 96 92 98 101 104 105 105 104 101 99 97 94 92
158 145 136 129 128 121 120 134 140 141 146 142 145 149 138 133 138 137 141 147 148 152 153 150 129 117 105 101 101 97 99 98 101 103 106 104 105 106 104 100 98 94 92
165 153 144 142 133 123 129 134 133 135 140 141 145 147 141 136 137 140 133 135 137 144 145 136 124 113 101 99 96 95 100 104 106 107 110 105 103 104 104 100 96 94 92
165 156 151 152 139 139 139 139 132 138 140 139 147 149 145 140 139 136 129 127 134 137 132 122 115 107 103 99 95 87 86 89 101 111 114 112 106 99 101 98 95 94 93
161 156 156 159 154 143 134 125 126 140 139 140 144 151 146 143 141 131 127 129 135 132 126 119 115 106 102 90 83 77 77 78 80 98 103 108 113 110 101 97 94 93 92
153 156 156 153 155 153 141 117 112 119 124 131 138 144 147 148 148 134 132 134 132 129 131 133 122 119 113 102 93 81 75 77 78 88 93 98 106 113 110 101 96 93 87
139 145 155 155 154 151 140 128 118 111 109 124 132 138 139 146 150 136 134 138 134 126 135 136 130 117 113 110 96 80 67 75 75 77 87 98 102 103 108 112 105 95 85
121 141 150 157 159 152 152 152 149 152 143 131 122 135 140 149 151 142 140 139 134 135 146 141 130 126 121 119 104 88 55 59 77 79 77 87 96 104 106 111 115 110 96
62 129 157 159 166 163 161 161 156 152 149 134 118 137 148 152 151 148 143 144 140 137 132 133 132 133 140 145 137 132 124 51 35 57 69 78 82 97 104 106 106 110 109
356 102 159 171 169 168 156 145 135 126 123 128 138 147 151 153 155 155 152 147 147 143 145 145 145 145 157 171 137 138 145 171 146 47 76 86 90 81 82 96 92 91 99
314 348 140 172 169 167 162 158 153 154 155 157 161 156 152 152 156 157 156 153 149 146 148 154 146 149 153 162 159 92 113 125 136 142 360 55 96 94 88 88 91 88 98
338 347 346 136 173 172 168 166 161 161 156 145 146 150 158 154 158 160 159 156 153 155 152 150 145 152 158 159 157 142 111 85 105 135 171 196 350 40 93 95 95 89 90
349 349 344 175 181 179 171 169 168 165 156 151 152 161 165 164 161 160 159 157 160 159 159 154 157 168 171 164 156 149 147 146 165 148 168 180 186 223 91 102 104 106 100
Height
1510 1512 1515 1518 1521 1523 1525 1527 1529 1531 1533 1534 1536 1537 1539 1540 1541 1542 1543 1544 1545 1546 1547 1548 1549 1549 1550 1551 1551 1552 1553 1553 1554 1554 1555 1555 1555 1555 1556 1556 1556 1556 1556
1508 1512 1515 1518 1521 1524 1526 1528 1530 1532 1534 1535 1537 1539 1540 1541 1543 1544 1545 1546 1547 1548 1549 1550 1551 1552 1553 1553 1554 1555 1556 1556 1557 1557 1558 1558 1558 1558 1558 1558 1559 1559 1559
1508 1512 1515 1518 1521 1524 1527 1529 1531 1533 1535 1536 1538 1540 1541 1543 1544 1545 1547 1548 1549 1550 1551 1552 1553 1554 1555 1556 1557 1557 1558 1559 1560 1560 1560 1560 1561 1561 1561 1561 1561 1561 1561
1509 1512 1515 1518 1521 1524 1527 1529 1531 1533 1535 1537 1539 1541 1543 1544 1545 1547 1548 1550 1551 1552 1553 1554 1555 1556 1557 1558 1559 1560 1561 1562 1562 1562 1563 1563 1563 1563 1563 1563 1564 1564 1564
1510 1512 1515 1519 1522 1525 1527 1530 1532 1534 1536 1538 1540 1542 1544 1545 1547 1548 1549 1551 1552 1553 1554 1556 1557 1558 1559 1560 1561 1562 1563 1564 1564 1565 1565 1565 1565 1566 1566 1566 1566 1566 1566
1511 1513 1516 1519 1522 1525 1528 1530 1532 1535 1537 1539 1541 1543 1545 1546 1548 1549 1551 1552 1554 1555 1556 1557 1558 1560 1561 1562 1563 1564 1565 1566 1566 1567 1567 1567 1568 1568 1568 1568 1568 1568 1568
1511 1513 1517 1520 1523 1525 1528 1530 1533 1535 1537 1539 1541 1543 1545 1547 1549 1550 1552 1553 1555 1556 1557 1558 1560 1561 1562 1564 1565 1566 1567 1568 1568 1569 1569 1569 1570 1570 1570 1570 1570 1571 1571
1511 1513 1517 1520 1523 1525 1528 1530 1533 1535 1538 1540 1542 1544 1546 1548 1549 1551 1553 1554 1556 1557 1558 1560 1561 1562 1564 1565 1566 1568 1569 1569 1570 1570 1571 1572 1572 1572 1572 1572 1572 1573 1573
1511 1514 1517 1520 1523 1526 1528 1531 1533 1536 1538 1540 1542 1544 1546 1548 1550 1552 1553 1555 1557 1558 1560 1561 1562 1564 1565 1567 1568 1569 1570 1571 1572 1572 1573 1573 1574 1574 1574 1574 1574 1574 1574
1512 1514 1516 1519 1522 1525 1528 1530 1533 1535 1538 1540 1542 1544 1546 1548 1550 1552 1554 1556 1557 1559 1560 1562 1564 1565 1567 1568 1569 1571 1572 1572 1573 1574 1574 1575 1576 1576 1576 1576 1576 1576 1576
1511 1514 1516 1518 1521 1524 1527 1530 1533 1535 1538 1540 1542 1544 1546 1548 1550 1552 1554 1556 1558 1560 1561 1563 1564 1566 1568 1569 1571 1572 1573 1574 1575 1575 1576 1576 1577 1577 1578 1578 1578 1578 1578
1510 1513 1515 1518 1520 1523 1526 1529 1532 1534 1537 1539 1541 1544 1546 1548 1550 1552 1554 1556 1558 1560 1562 1564 1565 1567 1569 1570 1572 1573 1574 1575 1576 1576 1577 1578 1578 1579 1579 1579 1579 1579 1579
1509 1512 1514 1517 1519 1522 1525 1528 1531 1533 1536 1539 1541 1543 1546 1548 1550 1552 1554 1556 1558 1560 1562 1564 1566 1567 1569 1571 1572 1573 1575 1575 1576 1577 1578 1579 1579 1580 1580 1580 1580 1581 1581
1509 1511 1514 1516 1518 1521 1524 1527 1529 1532 1535 1537 1540 1543 1545 1547 1549 1551 1553 1555 1558 1560 1562 1564 1566 1568 1570 1571 1573 1574 1575 1576 1577 1578 1579 1579 1580 1580 1581 1581 1582 1582 1582
1508 1510 1512 1515 1517 1520 1523 1525 1528 1531 1534 1536 1539 1542 1544 1546 1548 1551 1553 1555 1557 1560 1562 1564 1566 1568 1569 1571 1573 1574 1575 1576 1577 1578 1579 1580 1580 1581 1582 1582 1582 1583 1583
1507 1509 1511 1513 1516 1519 1521 1524 1527 1529 1532 1535 1538 1540 1543 1545 1547 1550 1552 1554 1557 1559 1562 1564 1566 1567 1569 1570 1572 1574 1575 1576 1577 1578 1579 1580 1581 1582 1582 1583 1583 1583 1583
1505 1507 1509 1512 1514 1517 1520 1522 1525 1528 1531 1533 1536 1539 1541 1544 1546 1549 1551 1553 1556 1558 1561 1563 1565 1567 1568 1570 1572 1574 1575 1576 1578 1578 1579 1580 1581 1582 1582 1583 1583 1583 1584
1503 1505 1507 1510 1513 1515 1518 1520 1523 1526 1529 1531 1534 1537 1540 1542 1545 1547 1549 1552 1554 1557 1559 1562 1564 1565 1568 1569 1571 1573 1575 1576 1577 1578 1579 1580 1581 1581 1582 1583 1583 1583 1584
1500 1503 1505 1508 1510 1513 1516 1519 1521 1524 1527 1529 1532 1535 1538 1540 1543 1545 1548 1550 1553 1555 1558 1560 1562 1564 1567 1569 1570 1572 1574 1575 1577 1578 1579 1579 1580 1581 1582 1582 1583 1583 1583
1499 1501 1503 1506 1508 1511 1513 1516 1519 1522 1524 1527 1530 1533 1535 1538 1541 1543 1546 1548 1551 1553 1556 1558 1561 1563 1565 1567 1569 1572 1573 1575 1576 1577 1578 1579 1580 1580 1581 1581 1582 1582 1583
1497 1498 1500 1503 1505 1508 1510 1513 1516 1518 1522 1525 1528 1530 1533 1536 1538 1541 1544 1546 1548 1551 1554 1557 1559 1561 1564 1566 1568 1570 1572 1574 1575 1576 1577 1578 1579 1579 1580 1580 1581 1581 1581
1494 1496 1498 1500 1503 1505 1508 1511 1514 1516 1519 1522 1525 1528 1531 1533 1536 1539 1541 1544 1546 1549 1552 1554 1557 1559 1562 1564 1566 1568 1571 1574 1574 1575 1576 1577 1577 1578 1579 1579 1580 1580 1580
1492 1494 1495 1498 1500 1503 1506 1508 1511 1515 1517 1520 1522 1525 1528 1531 1533 1536 1539 1541 1544 1547 1549 1552 1554 1557 1559 1562 1564 1567 1568 1570 1572 1574 1574 1575 1576 1577 1577 1578 1579 1579 1579
1490 1492 1494 1495 1498 1500 1503 1505 1508 1510 1513 1516 1519 1522 1525 1528 1531 1533 1536 1539 1541 1544 1547 1549 1552 1555 1557 1559 1562 1564 1566 1567 1569 1571 1573 1573 1574 1575 1576 1577 1577 1577 1578
1488 1489 1491 1493 1495 1497 1500 1503 1505 1508 1511 1514 1517 1520 1522 1525 1528 1531 1533 1536 1539 1542 1544 1547 1549 1552 1554 1557 1559 1561 1563 1565 1566 1568 1569 1571 1572 1573 1574 1575 1575 1576 1576
1487 1487 1489 1490 1492 1494 1497 1500 1502 1505 1508 1511 1514 1517 1520 1522 1525 1528 1531 1534 1536 1539 1541 1544 1547 1549 1552 1554 1556 1558 1560 1562 1564 1565 1567 1568 1569 1571 1572 1573 1573 1574 1574